Regional Weather Roundup
Issued by NWS

Home | Current Version | Previous Version | Text Only | Print | Product List | Glossary Off
Versions: 1 2 3 4 5 6 7 8 9 10 11 12 13 14 15 16 17 18 19 20 21 22 23 24 25 26 27 28 29 30 31 32 33 34 35 36 37 38 39 40 41 42 43 44 45 46 47 48 49 50

202
ASUS44 KJAN 211703
RWRMS

MISSISSIPPI HOURLY WEATHER ROUNDUP
NATIONAL WEATHER SERVICE JACKSON MS
1200 PM CDT SUN SEP 21 2014

NOTE: "FAIR: INDICATES FEW OR NO CLOUDS BELOW 12,000 FEET WITH NO
SIGNIFICANT WEATHER AND/OR OBSTRUCTIONS TO VISIBILITY.

MSZ001>002-007>008-010>013-018>021-025>028-034>036-211800-
NORTHWEST MISSISSIPPI

CITY           SKY/WX    TMP DP  RH WIND       PRES   REMARKS
CLARKSDALE     FAIR      90  68  48 W8        30.05F HX  93
CLEVELAND      FAIR      88  69  52 NW7       30.04F HX  93
GREENWOOD      SUNNY     87  68  52 CALM      30.06F HX  90
GREENVILLE     SUNNY     89  67  47 W6        30.05S HX  92
GRENADA        FAIR      86  70  58 SW3       30.06F HX  90
OLIVE BRANCH   MOSUNNY   84  73  70 W9        30.04F HX  91
OXFORD         FAIR      84  68  58 W6        30.07F
TUNICA         SUNNY     88  68  51 W10G17    30.04F HX  91
$$

MSZ003>006-009-014>017-022>024-029>033-037>039-211800-
NORTHEAST MISSISSIPPI

CITY           SKY/WX    TMP DP  RH WIND       PRES   REMARKS
COLUMBUS AFB   SUNNY     85  65  50 W6        30.05F
CORINTH        FAIR      86  66  51 SW8G15    30.02F
GOLDN TRIANGLE MOSUNNY   88  64  45 W7        30.06F
STARKVILLE     FAIR      86  64  48 W3        30.06F
TUPELO         SUNNY     86  68  54 W10       30.04F
$$

MSZ040-058-211800-
CENTRAL MISSISSIPPI

CITY           SKY/WX    TMP DP  RH WIND       PRES   REMARKS
JACKSON INTL   MOSUNNY   86  62  44 VRB3      30.07F
JACKSON HAWKNS SUNNY     87  65  47 NE5       30.08S
MERIDIAN KEY   NOT AVBL
MERIDIAN NAS   SUNNY     85  64  49 VRB3      30.07F
RAYMOND        FAIR      84  81  89 CALM      30.07F HX  98
VICKSBURG      SUNNY     88  67  49 CALM      30.06F HX  91
$$

MSZ059>079-211800-
SOUTH MISSISSIPPI

CITY           SKY/WX    TMP DP  RH WIND       PRES   REMARKS
BROOKHAVEN     FAIR      84  64  51 NE7       30.09F
COLUMBIA       FAIR      82  66  57 CALM      30.05F
HATTIESBURG    MOSUNNY   84  67  56 VRB3      30.06F
MCCOMB         SUNNY     84  64  50 N8        30.07S
NATCHEZ        MOSUNNY   84  72  65 N5        30.08S
PINE BELT      SUNNY    N/A N/A N/A NE5       30.08S
$$

MSZ080>082-211800-
COASTAL MISSISSIPPI

CITY           SKY/WX    TMP DP  RH WIND       PRES   REMARKS
BILOXI         SUNNY     86  68  55 E5        30.04S
PASCAGOULA     MOSUNNY   85  67  54 E8        30.04S
GULFPORT       PTSUNNY   85  68  56 E5        30.03F
$$



USA.gov is the U.S. government's official web portal to all federal, state and local government web resources and services.